Year,Month,Day,Hour,Minute,Value (Times are PST for temperature in C)
2014,04,14,00,00,5.50
2014,04,14,00,01,5.50
2014,04,14,00,02,5.40
2014,04,14,00,03,5.40
2014,04,14,00,04,5.40
2014,04,14,00,05,5.40
2014,04,14,00,06,5.30
2014,04,14,00,07,5.30
2014,04,14,00,08,5.30
2014,04,14,00,09,5.30
2014,04,14,00,10,5.30
2014,04,14,00,11,5.30
2014,04,14,00,12,5.30
2014,04,14,00,13,5.20
2014,04,14,00,14,5.20
2014,04,14,00,15,5.20
2014,04,14,00,16,5.10
2014,04,14,00,17,5.10
2014,04,14,00,18,5.10
2014,04,14,00,19,5.10
2014,04,14,00,20,5.10
2014,04,14,00,21,5.10
2014,04,14,00,22,5.10
2014,04,14,00,23,5.10
2014,04,14,00,24,5.10
2014,04,14,00,25,4.90
2014,04,14,00,26,4.90
2014,04,14,00,27,4.90
2014,04,14,00,28,4.90
2014,04,14,00,29,4.90
2014,04,14,00,30,4.90
2014,04,14,00,31,4.90
2014,04,14,00,32,4.90
2014,04,14,00,33,4.90
2014,04,14,00,34,4.80
2014,04,14,00,35,4.80
2014,04,14,00,36,4.80
2014,04,14,00,37,4.80
2014,04,14,00,38,4.70
2014,04,14,00,39,4.70
2014,04,14,00,40,4.70
2014,04,14,00,41,4.70
2014,04,14,00,42,4.60
2014,04,14,00,43,4.60
2014,04,14,00,44,4.60
2014,04,14,00,45,4.60
2014,04,14,00,46,4.60
2014,04,14,00,47,4.50
2014,04,14,00,48,4.50
2014,04,14,00,49,4.50
2014,04,14,00,50,4.50
2014,04,14,00,51,4.40
2014,04,14,00,52,4.40
2014,04,14,00,53,4.40
2014,04,14,00,54,4.40
2014,04,14,00,55,4.30
2014,04,14,00,56,4.30
2014,04,14,00,57,4.30
2014,04,14,00,58,4.40
2014,04,14,00,59,4.40
2014,04,14,01,00,4.40
2014,04,14,01,01,4.50
2014,04,14,01,02,4.50
2014,04,14,01,03,4.50
2014,04,14,01,04,4.50
2014,04,14,01,05,4.40
2014,04,14,01,06,4.40
2014,04,14,01,07,4.40
2014,04,14,01,08,4.40
2014,04,14,01,09,4.40
2014,04,14,01,10,4.30
2014,04,14,01,11,4.30
2014,04,14,01,12,4.30
2014,04,14,01,13,4.20
2014,04,14,01,14,4.20
2014,04,14,01,15,4.20
2014,04,14,01,16,4.20
2014,04,14,01,17,4.20
2014,04,14,01,18,4.20
2014,04,14,01,19,4.10
2014,04,14,01,20,4.10
2014,04,14,01,21,4.10
2014,04,14,01,22,4.10
2014,04,14,01,23,4.00
2014,04,14,01,24,4.00
2014,04,14,01,25,4.00
2014,04,14,01,26,3.90
2014,04,14,01,27,3.90
2014,04,14,01,28,3.80
2014,04,14,01,29,3.80
2014,04,14,01,30,3.80
2014,04,14,01,31,3.80
2014,04,14,01,32,3.80
2014,04,14,01,33,3.70
2014,04,14,01,34,3.70
2014,04,14,01,35,3.60
2014,04,14,01,36,3.60
2014,04,14,01,37,3.60
2014,04,14,01,38,3.60
2014,04,14,01,39,3.60
2014,04,14,01,40,3.50
2014,04,14,01,41,3.50
2014,04,14,01,42,3.50
2014,04,14,01,43,3.50
2014,04,14,01,44,3.50
2014,04,14,01,45,3.60
2014,04,14,01,46,3.60
2014,04,14,01,47,3.60
2014,04,14,01,48,3.60
2014,04,14,01,49,3.60
2014,04,14,01,50,3.60
2014,04,14,01,51,3.60
2014,04,14,01,52,3.70
2014,04,14,01,53,3.80
2014,04,14,01,54,3.80
2014,04,14,01,55,3.80
2014,04,14,01,56,3.80
2014,04,14,01,57,3.80
2014,04,14,01,58,3.90
2014,04,14,01,59,3.90
2014,04,14,02,00,3.90
2014,04,14,02,01,3.90
2014,04,14,02,02,3.90
2014,04,14,02,03,3.90
2014,04,14,02,04,3.90
2014,04,14,02,05,3.90
2014,04,14,02,06,3.80
2014,04,14,02,07,3.80
2014,04,14,02,08,3.80
2014,04,14,02,09,3.80
2014,04,14,02,10,3.80
2014,04,14,02,11,3.70
2014,04,14,02,12,3.70
2014,04,14,02,13,3.70
2014,04,14,02,14,3.70
2014,04,14,02,15,3.60
2014,04,14,02,16,3.60
2014,04,14,02,17,3.60
2014,04,14,02,18,3.60
2014,04,14,02,19,3.60
2014,04,14,02,20,3.60
2014,04,14,02,21,3.60
2014,04,14,02,22,3.50
2014,04,14,02,23,3.50
2014,04,14,02,24,3.50
2014,04,14,02,25,3.50
2014,04,14,02,26,3.50
2014,04,14,02,27,3.50
2014,04,14,02,28,3.40
2014,04,14,02,29,3.40
2014,04,14,02,30,3.40
2014,04,14,02,31,3.40
2014,04,14,02,32,3.40
2014,04,14,02,33,3.40
2014,04,14,02,34,3.30
2014,04,14,02,35,3.30
2014,04,14,02,36,3.30
2014,04,14,02,37,3.30
2014,04,14,02,38,3.30
2014,04,14,02,39,3.30
2014,04,14,02,40,3.30
2014,04,14,02,41,3.30
2014,04,14,02,42,3.30
2014,04,14,02,43,3.30
2014,04,14,02,44,3.30
2014,04,14,02,45,3.30
2014,04,14,02,46,3.30
2014,04,14,02,47,3.30
2014,04,14,02,48,3.30
2014,04,14,02,49,3.30
2014,04,14,02,50,3.40
2014,04,14,02,51,3.40
2014,04,14,02,52,3.40
2014,04,14,02,53,3.40
2014,04,14,02,54,3.40
2014,04,14,02,55,3.40
2014,04,14,02,56,3.40
2014,04,14,02,57,3.40
2014,04,14,02,58,3.40
2014,04,14,02,59,3.40
2014,04,14,03,00,3.50
2014,04,14,03,01,3.50
2014,04,14,03,02,3.60
2014,04,14,03,03,3.70
2014,04,14,03,04,3.80
2014,04,14,03,05,3.90
2014,04,14,03,06,4.00
2014,04,14,03,07,4.10
2014,04,14,03,08,4.10
2014,04,14,03,09,4.20
2014,04,14,03,10,4.20
2014,04,14,03,11,4.20
2014,04,14,03,12,4.20
2014,04,14,03,13,4.20
2014,04,14,03,14,4.20
2014,04,14,03,15,4.20
2014,04,14,03,16,4.20
2014,04,14,03,17,4.20
2014,04,14,03,18,4.10
2014,04,14,03,19,4.10
2014,04,14,03,20,4.00
2014,04,14,03,21,4.00
2014,04,14,03,22,4.00
2014,04,14,03,23,3.90
2014,04,14,03,24,3.90
2014,04,14,03,25,3.80
2014,04,14,03,26,3.80
2014,04,14,03,27,3.80
2014,04,14,03,28,3.80
2014,04,14,03,29,3.80
2014,04,14,03,30,3.80
2014,04,14,03,31,3.90
2014,04,14,03,32,4.00
2014,04,14,03,33,4.00
2014,04,14,03,34,4.00
2014,04,14,03,35,4.10
2014,04,14,03,36,4.10
2014,04,14,03,37,4.10
2014,04,14,03,38,4.10
2014,04,14,03,39,4.10
2014,04,14,03,40,4.00
2014,04,14,03,41,4.00
2014,04,14,03,42,4.00
2014,04,14,03,43,3.90
2014,04,14,03,44,3.90
2014,04,14,03,45,3.90
2014,04,14,03,46,3.80
2014,04,14,03,47,3.80
2014,04,14,03,48,3.80
2014,04,14,03,49,3.80
2014,04,14,03,50,3.70
2014,04,14,03,51,3.70
2014,04,14,03,52,3.60
2014,04,14,03,53,3.60
2014,04,14,03,54,3.60
2014,04,14,03,55,3.50
2014,04,14,03,56,3.50
2014,04,14,03,57,3.50
2014,04,14,03,58,3.40
2014,04,14,03,59,3.40
2014,04,14,04,00,3.40
2014,04,14,04,01,3.30
2014,04,14,04,02,3.30
2014,04,14,04,03,3.30
2014,04,14,04,04,3.30
2014,04,14,04,05,3.20
2014,04,14,04,06,3.20
2014,04,14,04,07,3.20
2014,04,14,04,08,3.10
2014,04,14,04,09,3.10
2014,04,14,04,10,3.10
2014,04,14,04,11,3.10
2014,04,14,04,12,3.10
2014,04,14,04,13,3.00
2014,04,14,04,14,2.90
2014,04,14,04,15,2.90
2014,04,14,04,16,2.90
2014,04,14,04,17,2.90
2014,04,14,04,18,2.90
2014,04,14,04,19,2.90
2014,04,14,04,20,2.90
2014,04,14,04,21,2.90
2014,04,14,04,22,2.90
2014,04,14,04,23,2.80
2014,04,14,04,24,2.80
2014,04,14,04,25,2.80
2014,04,14,04,26,2.80
2014,04,14,04,27,2.80
2014,04,14,04,28,2.80
2014,04,14,04,29,2.80
2014,04,14,04,30,2.80
2014,04,14,04,31,2.80
2014,04,14,04,32,2.80
2014,04,14,04,33,2.80
2014,04,14,04,34,2.80
2014,04,14,04,35,2.80
2014,04,14,04,36,2.80
2014,04,14,04,37,2.80
2014,04,14,04,38,2.80
2014,04,14,04,39,2.80
2014,04,14,04,40,2.80
2014,04,14,04,41,2.80
2014,04,14,04,42,2.80
2014,04,14,04,43,2.80
2014,04,14,04,44,2.80
2014,04,14,04,45,2.80
2014,04,14,04,46,2.80
2014,04,14,04,47,2.80
2014,04,14,04,48,2.80
2014,04,14,04,49,2.80
2014,04,14,04,50,2.80
2014,04,14,04,51,2.70
2014,04,14,04,52,2.70
2014,04,14,04,53,2.70
2014,04,14,04,54,2.70
2014,04,14,04,55,2.70
2014,04,14,04,56,2.70
2014,04,14,04,57,2.80
2014,04,14,04,58,2.80
2014,04,14,04,59,2.80
2014,04,14,05,00,2.80
2014,04,14,05,01,2.80
2014,04,14,05,02,2.80
2014,04,14,05,03,2.80
2014,04,14,05,04,2.90
2014,04,14,05,05,2.90
2014,04,14,05,06,2.90
2014,04,14,05,07,2.90
2014,04,14,05,08,2.90
2014,04,14,05,09,2.90
2014,04,14,05,10,2.90
2014,04,14,05,11,2.90
2014,04,14,05,12,2.90
2014,04,14,05,13,2.90
2014,04,14,05,14,2.90
2014,04,14,05,15,2.80
2014,04,14,05,16,2.80
2014,04,14,05,17,2.80
2014,04,14,05,18,2.80
2014,04,14,05,19,2.70
2014,04,14,05,20,2.70
2014,04,14,05,21,2.70
2014,04,14,05,22,2.70
2014,04,14,05,23,2.70
2014,04,14,05,24,2.70
2014,04,14,05,25,2.70
2014,04,14,05,26,2.70
2014,04,14,05,27,2.70
2014,04,14,05,28,2.70
2014,04,14,05,29,2.70
2014,04,14,05,30,2.70
2014,04,14,05,31,2.70
2014,04,14,05,32,2.70
2014,04,14,05,33,2.70
2014,04,14,05,34,2.70
2014,04,14,05,35,2.70
2014,04,14,05,36,2.60
2014,04,14,05,37,2.60
2014,04,14,05,38,2.60
2014,04,14,05,39,2.60
2014,04,14,05,40,2.60
2014,04,14,05,41,2.60
2014,04,14,05,42,2.60
2014,04,14,05,43,2.60
2014,04,14,05,44,2.60
2014,04,14,05,45,2.60
2014,04,14,05,46,2.60
2014,04,14,05,47,2.60
2014,04,14,05,48,2.60
2014,04,14,05,49,2.60
2014,04,14,05,50,2.60
2014,04,14,05,51,2.70
2014,04,14,05,52,2.70
2014,04,14,05,53,2.70
2014,04,14,05,54,2.70
2014,04,14,05,55,2.80
2014,04,14,05,56,2.90
2014,04,14,05,57,3.10
2014,04,14,05,58,3.20
2014,04,14,05,59,3.30
2014,04,14,06,00,3.40
2014,04,14,06,01,3.50
2014,04,14,06,02,3.50
2014,04,14,06,03,3.50
2014,04,14,06,04,3.50
2014,04,14,06,05,3.50
2014,04,14,06,06,3.50
2014,04,14,06,07,3.60
2014,04,14,06,08,3.60
2014,04,14,06,09,3.60
2014,04,14,06,10,3.70
2014,04,14,06,11,3.70
2014,04,14,06,12,3.70
2014,04,14,06,13,3.70
2014,04,14,06,14,3.70
2014,04,14,06,15,3.70
2014,04,14,06,16,3.60
2014,04,14,06,17,3.60
2014,04,14,06,18,3.60
2014,04,14,06,19,3.50
2014,04,14,06,20,3.50
2014,04,14,06,21,3.40
2014,04,14,06,22,3.40
2014,04,14,06,23,3.30
2014,04,14,06,24,3.30
2014,04,14,06,25,3.20
2014,04,14,06,26,3.20
2014,04,14,06,27,3.20
2014,04,14,06,28,3.10
2014,04,14,06,29,3.10
2014,04,14,06,30,3.10
2014,04,14,06,31,3.10
2014,04,14,06,32,3.20
2014,04,14,06,33,3.20
2014,04,14,06,34,3.30
2014,04,14,06,35,3.30
2014,04,14,06,36,3.40
2014,04,14,06,37,3.40
2014,04,14,06,38,3.50
2014,04,14,06,39,3.50
2014,04,14,06,40,3.50
2014,04,14,06,41,3.50
2014,04,14,06,42,3.50
2014,04,14,06,43,3.50
2014,04,14,06,44,3.50
2014,04,14,06,45,3.50
2014,04,14,06,46,3.50
2014,04,14,06,47,3.40
2014,04,14,06,48,3.40
2014,04,14,06,49,3.40
2014,04,14,06,50,3.40
2014,04,14,06,51,3.40
2014,04,14,06,52,3.40
2014,04,14,06,53,3.30
2014,04,14,06,54,3.30
2014,04,14,06,55,3.30
2014,04,14,06,56,3.30
2014,04,14,06,57,3.30
2014,04,14,06,58,3.30
2014,04,14,06,59,3.30
2014,04,14,07,00,3.30
2014,04,14,07,01,3.30
2014,04,14,07,02,3.30
2014,04,14,07,03,3.30
2014,04,14,07,04,3.30
2014,04,14,07,05,3.30
2014,04,14,07,06,3.40
2014,04,14,07,07,3.40
2014,04,14,07,08,3.40
2014,04,14,07,09,3.40
2014,04,14,07,10,3.50
2014,04,14,07,11,3.50
2014,04,14,07,12,3.50
2014,04,14,07,13,3.60
2014,04,14,07,14,3.60
2014,04,14,07,15,3.70
2014,04,14,07,16,3.80
2014,04,14,07,17,3.80
2014,04,14,07,18,3.90
2014,04,14,07,19,4.00
2014,04,14,07,20,4.00
2014,04,14,07,21,4.10
2014,04,14,07,22,4.20
2014,04,14,07,23,4.30
2014,04,14,07,24,4.40
2014,04,14,07,25,4.50
2014,04,14,07,26,4.60
2014,04,14,07,27,4.70
2014,04,14,07,28,4.80
2014,04,14,07,29,4.90
2014,04,14,07,30,4.90
2014,04,14,07,31,5.00
2014,04,14,07,32,5.10
2014,04,14,07,33,5.10
2014,04,14,07,34,5.20
2014,04,14,07,35,5.30
2014,04,14,07,36,5.30
2014,04,14,07,37,5.30
2014,04,14,07,38,5.50
2014,04,14,07,39,5.50
2014,04,14,07,40,5.70
2014,04,14,07,41,5.70
2014,04,14,07,42,5.80
2014,04,14,07,43,5.90
2014,04,14,07,44,6.00
2014,04,14,07,45,6.00
2014,04,14,07,46,6.10
2014,04,14,07,47,6.20
2014,04,14,07,48,6.20
2014,04,14,07,49,6.20
2014,04,14,07,50,6.30
2014,04,14,07,51,6.30
2014,04,14,07,52,6.40
2014,04,14,07,53,6.60
2014,04,14,07,54,6.70
2014,04,14,07,55,6.80
2014,04,14,07,56,6.90
2014,04,14,07,57,7.00
2014,04,14,07,58,7.00
2014,04,14,07,59,7.10
2014,04,14,08,00,7.10
2014,04,14,08,01,7.10
2014,04,14,08,02,7.20
2014,04,14,08,03,7.20
2014,04,14,08,04,7.20
2014,04,14,08,05,7.30
2014,04,14,08,06,7.40
2014,04,14,08,07,7.50
2014,04,14,08,08,7.60
2014,04,14,08,09,7.70
2014,04,14,08,10,7.80
2014,04,14,08,11,7.80
2014,04,14,08,12,7.90
2014,04,14,08,13,8.00
2014,04,14,08,14,8.10
2014,04,14,08,15,8.20
2014,04,14,08,16,8.30
2014,04,14,08,17,8.40
2014,04,14,08,18,8.50
2014,04,14,08,19,8.50
2014,04,14,08,20,8.60
2014,04,14,08,21,8.70
2014,04,14,08,22,8.70
2014,04,14,08,23,8.70
2014,04,14,08,24,8.80
2014,04,14,08,25,8.80
2014,04,14,08,26,8.90
2014,04,14,08,27,8.90
2014,04,14,08,28,8.90
2014,04,14,08,29,8.90
2014,04,14,08,30,8.90
2014,04,14,08,31,8.90
2014,04,14,08,32,8.90
2014,04,14,08,33,8.90
2014,04,14,08,34,8.90
2014,04,14,08,35,8.90
2014,04,14,08,36,8.90
2014,04,14,08,37,8.90
2014,04,14,08,38,9.00
2014,04,14,08,39,9.00
2014,04,14,08,40,9.00
2014,04,14,08,41,9.10
2014,04,14,08,42,9.10
2014,04,14,08,43,9.10
2014,04,14,08,44,9.20
2014,04,14,08,45,9.20
2014,04,14,08,46,9.30
2014,04,14,08,47,9.30
2014,04,14,08,48,9.40
2014,04,14,08,49,9.50
2014,04,14,08,50,9.60
2014,04,14,08,51,9.70
2014,04,14,08,52,9.70
2014,04,14,08,53,9.80
2014,04,14,08,54,9.80
2014,04,14,08,55,9.90
2014,04,14,08,56,9.90
2014,04,14,08,57,9.90
2014,04,14,08,58,9.90
2014,04,14,08,59,9.90
2014,04,14,09,00,9.90
2014,04,14,09,01,9.90
2014,04,14,09,02,10.00
2014,04,14,09,03,10.10
2014,04,14,09,04,10.10
2014,04,14,09,05,10.10
2014,04,14,09,06,10.20
2014,04,14,09,07,10.20
2014,04,14,09,08,10.30
2014,04,14,09,09,10.30
2014,04,14,09,10,10.40
2014,04,14,09,11,10.40
2014,04,14,09,12,10.40
2014,04,14,09,13,10.40
2014,04,14,09,14,10.40
2014,04,14,09,15,10.50
2014,04,14,09,16,10.60
2014,04,14,09,17,10.60
2014,04,14,09,18,10.60
2014,04,14,09,19,10.60
2014,04,14,09,20,10.60
2014,04,14,09,21,10.60
2014,04,14,09,22,10.60
2014,04,14,09,23,10.60
2014,04,14,09,24,10.60
2014,04,14,09,25,10.70
2014,04,14,09,26,10.70
2014,04,14,09,27,10.80
2014,04,14,09,28,10.80
2014,04,14,09,29,10.90
2014,04,14,09,30,11.00
2014,04,14,09,31,11.10
2014,04,14,09,32,11.20
2014,04,14,09,33,11.30
2014,04,14,09,34,11.40
2014,04,14,09,35,11.40
2014,04,14,09,36,11.50
2014,04,14,09,37,11.60
2014,04,14,09,38,11.60
2014,04,14,09,39,11.60
2014,04,14,09,40,11.70
2014,04,14,09,41,11.80
2014,04,14,09,42,11.80
2014,04,14,09,43,11.80
2014,04,14,09,44,11.80
2014,04,14,09,45,11.90
2014,04,14,09,46,11.90
2014,04,14,09,47,11.90
2014,04,14,09,48,11.90
2014,04,14,09,49,11.90
2014,04,14,09,50,11.90
2014,04,14,09,51,11.90
2014,04,14,09,52,11.90
2014,04,14,09,53,12.00
2014,04,14,09,54,12.00
2014,04,14,09,55,12.00
2014,04,14,09,56,12.00
2014,04,14,09,57,12.00
2014,04,14,09,58,12.00
2014,04,14,09,59,12.00
2014,04,14,10,00,11.90
2014,04,14,10,01,11.90
2014,04,14,10,02,11.90
2014,04,14,10,03,11.90
2014,04,14,10,04,11.90
2014,04,14,10,05,12.00
2014,04,14,10,06,12.00
2014,04,14,10,07,12.00
2014,04,14,10,08,12.10
2014,04,14,10,09,12.10
2014,04,14,10,10,12.20
2014,04,14,10,11,12.30
2014,04,14,10,12,12.30
2014,04,14,10,13,12.50
2014,04,14,10,14,12.50
2014,04,14,10,15,12.60
2014,04,14,10,16,12.60
2014,04,14,10,17,12.70
2014,04,14,10,18,12.80
2014,04,14,10,19,12.80
2014,04,14,10,20,12.90
2014,04,14,10,21,13.00
2014,04,14,10,22,13.00
2014,04,14,10,23,13.00
2014,04,14,10,24,13.00
2014,04,14,10,25,13.10
2014,04,14,10,26,13.10
2014,04,14,10,27,13.10
2014,04,14,10,28,13.20
2014,04,14,10,29,13.20
2014,04,14,10,30,13.20
2014,04,14,10,31,13.10
2014,04,14,10,32,13.10
2014,04,14,10,33,13.10
2014,04,14,10,34,13.10
2014,04,14,10,35,13.20
2014,04,14,10,36,13.30
2014,04,14,10,37,13.30
2014,04,14,10,38,13.30
2014,04,14,10,39,13.40
2014,04,14,10,40,13.50
2014,04,14,10,41,13.50
2014,04,14,10,42,13.40
2014,04,14,10,43,13.50
2014,04,14,10,44,13.50
2014,04,14,10,45,13.60
2014,04,14,10,46,13.70
2014,04,14,10,47,13.70
2014,04,14,10,48,13.70
2014,04,14,10,49,13.70
2014,04,14,10,50,13.70
2014,04,14,10,51,13.70
2014,04,14,10,52,13.70
2014,04,14,10,53,13.70
2014,04,14,10,54,13.80
2014,04,14,10,55,13.90
2014,04,14,10,56,14.00
2014,04,14,10,57,14.00
2014,04,14,10,58,14.10
2014,04,14,10,59,14.10
2014,04,14,11,00,14.20
2014,04,14,11,01,14.20
2014,04,14,11,02,14.40
2014,04,14,11,03,14.50
2014,04,14,11,04,14.50
2014,04,14,11,05,14.60
2014,04,14,11,06,14.70
2014,04,14,11,07,14.80
2014,04,14,11,08,14.80
2014,04,14,11,09,14.90
2014,04,14,11,10,14.90
2014,04,14,11,11,15.00
2014,04,14,11,12,15.00
2014,04,14,11,13,14.90
2014,04,14,11,14,14.90
2014,04,14,11,15,15.00
2014,04,14,11,16,15.00
2014,04,14,11,17,15.10
2014,04,14,11,18,15.10
2014,04,14,11,19,15.10
2014,04,14,11,20,15.00
2014,04,14,11,21,15.00
2014,04,14,11,22,14.90
2014,04,14,11,23,14.60
2014,04,14,11,24,14.50
2014,04,14,11,25,14.40
2014,04,14,11,26,14.30
2014,04,14,11,27,14.40
2014,04,14,11,28,14.40
2014,04,14,11,29,14.20
2014,04,14,11,30,14.10
2014,04,14,11,31,14.00
2014,04,14,11,32,14.00
2014,04,14,11,33,14.10
2014,04,14,11,34,14.20
2014,04,14,11,35,14.20
2014,04,14,11,36,14.20
2014,04,14,11,37,14.20
2014,04,14,11,38,14.10
2014,04,14,11,39,13.90
2014,04,14,11,40,13.70
2014,04,14,11,41,13.50
2014,04,14,11,42,13.40
2014,04,14,11,43,13.30
2014,04,14,11,44,13.30
2014,04,14,11,45,13.30
2014,04,14,11,46,13.30
2014,04,14,11,47,13.30
2014,04,14,11,48,13.30
2014,04,14,11,49,13.30
2014,04,14,11,50,13.30
2014,04,14,11,51,13.20
2014,04,14,11,52,13.20
2014,04,14,11,53,13.20
2014,04,14,11,54,13.10
2014,04,14,11,55,13.00
2014,04,14,11,56,12.90
2014,04,14,11,57,12.90
2014,04,14,11,58,12.90
2014,04,14,11,59,12.90
2014,04,14,12,00,12.90
2014,04,14,12,01,12.90
2014,04,14,12,02,12.90
2014,04,14,12,03,12.80
2014,04,14,12,04,12.90
2014,04,14,12,05,12.90
2014,04,14,12,06,12.90
2014,04,14,12,07,12.80
2014,04,14,12,08,12.80
2014,04,14,12,09,12.80
2014,04,14,12,10,12.70
2014,04,14,12,11,12.60
2014,04,14,12,12,12.60
2014,04,14,12,13,12.70
2014,04,14,12,14,12.70
2014,04,14,12,15,12.70
2014,04,14,12,16,12.70
2014,04,14,12,17,12.70
2014,04,14,12,18,12.60
2014,04,14,12,19,12.50
2014,04,14,12,20,12.50
2014,04,14,12,21,12.50
2014,04,14,12,22,12.40
2014,04,14,12,23,12.20
2014,04,14,12,24,12.10
2014,04,14,12,25,12.20
2014,04,14,12,26,12.20
2014,04,14,12,27,12.30
2014,04,14,12,28,12.30
2014,04,14,12,29,12.30
2014,04,14,12,30,12.30
2014,04,14,12,31,12.30
2014,04,14,12,32,12.40
2014,04,14,12,33,12.40
2014,04,14,12,34,12.40
2014,04,14,12,35,12.40
2014,04,14,12,36,12.50
2014,04,14,12,37,12.50
2014,04,14,12,38,12.50
2014,04,14,12,39,12.50
2014,04,14,12,40,12.40
2014,04,14,12,41,12.40
2014,04,14,12,42,12.40
2014,04,14,12,43,12.40
2014,04,14,12,44,12.40
2014,04,14,12,45,12.40
2014,04,14,12,46,12.40
2014,04,14,12,47,12.50
2014,04,14,12,48,12.60
2014,04,14,12,49,12.60
2014,04,14,12,50,12.70
2014,04,14,12,51,12.70
2014,04,14,12,52,12.80
2014,04,14,12,53,12.80
2014,04,14,12,54,13.00
2014,04,14,12,55,13.10
2014,04,14,12,56,13.10
2014,04,14,12,57,13.30
2014,04,14,12,58,13.40
2014,04,14,12,59,13.50
2014,04,14,13,00,13.50
2014,04,14,13,01,13.60
2014,04,14,13,02,13.70
2014,04,14,13,03,13.80
2014,04,14,13,04,13.90
2014,04,14,13,05,14.00
2014,04,14,13,06,14.10
2014,04,14,13,07,14.20
2014,04,14,13,08,14.40
2014,04,14,13,09,14.50
2014,04,14,13,10,14.60
2014,04,14,13,11,14.70
2014,04,14,13,12,14.70
2014,04,14,13,13,14.70
2014,04,14,13,14,14.70
2014,04,14,13,15,14.70
2014,04,14,13,16,14.70
2014,04,14,13,17,14.80
2014,04,14,13,18,14.80
2014,04,14,13,19,14.90
2014,04,14,13,20,14.90
2014,04,14,13,21,15.00
2014,04,14,13,22,15.10
2014,04,14,13,23,15.20
2014,04,14,13,24,15.20
2014,04,14,13,25,15.20
2014,04,14,13,26,15.20
2014,04,14,13,27,15.30
2014,04,14,13,28,15.30
2014,04,14,13,29,15.40
2014,04,14,13,30,15.50
2014,04,14,13,31,15.50
2014,04,14,13,32,15.60
2014,04,14,13,33,15.80
2014,04,14,13,34,15.80
2014,04,14,13,35,15.90
2014,04,14,13,36,16.00
2014,04,14,13,37,16.10
2014,04,14,13,38,16.20
2014,04,14,13,39,16.40
2014,04,14,13,40,16.50
2014,04,14,13,41,16.60
2014,04,14,13,42,16.70
2014,04,14,13,43,16.90
2014,04,14,13,44,17.10
2014,04,14,13,45,17.30
2014,04,14,13,46,17.50
2014,04,14,13,47,17.70
2014,04,14,13,48,17.90
2014,04,14,13,49,18.00
2014,04,14,13,50,18.20
2014,04,14,13,51,18.40
2014,04,14,13,52,18.50
2014,04,14,13,53,18.60
2014,04,14,13,54,18.60
2014,04,14,13,55,18.60
2014,04,14,13,56,18.60
2014,04,14,13,57,18.60
2014,04,14,13,58,18.60
2014,04,14,13,59,18.70
2014,04,14,14,00,18.70
2014,04,14,14,01,18.80
2014,04,14,14,02,18.90
2014,04,14,14,03,18.90
2014,04,14,14,04,18.80
2014,04,14,14,05,18.70
2014,04,14,14,06,18.60
2014,04,14,14,07,18.60
2014,04,14,14,08,18.50
2014,04,14,14,09,18.50
2014,04,14,14,10,18.50
2014,04,14,14,11,18.50
2014,04,14,14,12,18.60
2014,04,14,14,13,18.60
2014,04,14,14,14,18.60
2014,04,14,14,15,18.60
2014,04,14,14,16,18.60
2014,04,14,14,17,18.70
2014,04,14,14,18,18.70
2014,04,14,14,19,18.80
2014,04,14,14,20,18.80
2014,04,14,14,21,18.90
2014,04,14,14,22,18.80
2014,04,14,14,23,18.80
2014,04,14,14,24,18.80
2014,04,14,14,25,18.90
2014,04,14,14,26,18.90
2014,04,14,14,27,18.90
2014,04,14,14,28,18.90
2014,04,14,14,29,18.90
2014,04,14,14,30,18.80
2014,04,14,14,31,18.80
2014,04,14,14,32,18.80
2014,04,14,14,33,18.80
2014,04,14,14,34,18.80
2014,04,14,14,35,18.70
2014,04,14,14,36,18.70
2014,04,14,14,37,18.70
2014,04,14,14,38,18.80
2014,04,14,14,39,18.70
2014,04,14,14,40,18.70
2014,04,14,14,41,18.60
2014,04,14,14,42,18.60
2014,04,14,14,43,18.50
2014,04,14,14,44,18.50
2014,04,14,14,45,18.60
2014,04,14,14,46,18.60
2014,04,14,14,47,18.50
2014,04,14,14,48,18.50
2014,04,14,14,49,18.50
2014,04,14,14,50,18.40
2014,04,14,14,51,18.40
2014,04,14,14,52,18.30
2014,04,14,14,53,18.30
2014,04,14,14,54,18.30
2014,04,14,14,55,18.30
2014,04,14,14,56,18.30
2014,04,14,14,57,18.30
2014,04,14,14,58,18.20
2014,04,14,14,59,18.20
2014,04,14,15,00,18.20
2014,04,14,15,01,18.20
2014,04,14,15,02,18.20
2014,04,14,15,03,18.10
2014,04,14,15,04,18.00
2014,04,14,15,05,17.90
2014,04,14,15,06,17.90
2014,04,14,15,07,17.90
2014,04,14,15,08,17.90
2014,04,14,15,09,17.90
2014,04,14,15,10,17.90
2014,04,14,15,11,17.90
2014,04,14,15,12,17.90
2014,04,14,15,13,17.90
2014,04,14,15,14,17.90
2014,04,14,15,15,17.90
2014,04,14,15,16,18.10
2014,04,14,15,17,18.10
2014,04,14,15,18,18.20
2014,04,14,15,19,18.20
2014,04,14,15,20,18.20
2014,04,14,15,21,18.20
2014,04,14,15,22,18.20
2014,04,14,15,23,18.20
2014,04,14,15,24,18.20
2014,04,14,15,25,18.20
2014,04,14,15,26,18.20
2014,04,14,15,27,18.20
2014,04,14,15,28,18.20
2014,04,14,15,29,18.20
2014,04,14,15,30,18.30
2014,04,14,15,31,18.30
2014,04,14,15,32,18.40
2014,04,14,15,33,18.50
2014,04,14,15,34,18.50
2014,04,14,15,35,18.50
2014,04,14,15,36,18.50
2014,04,14,15,37,18.50
2014,04,14,15,38,18.40
2014,04,14,15,39,18.40
2014,04,14,15,40,18.50
2014,04,14,15,41,18.50
2014,04,14,15,42,18.50
2014,04,14,15,43,18.50
2014,04,14,15,44,18.40
2014,04,14,15,45,18.30
2014,04,14,15,46,18.30
2014,04,14,15,47,18.20
2014,04,14,15,48,18.20
2014,04,14,15,49,18.10
2014,04,14,15,50,18.10
2014,04,14,15,51,18.00
2014,04,14,15,52,17.90
2014,04,14,15,53,17.80
2014,04,14,15,54,17.80
2014,04,14,15,55,17.70
2014,04,14,15,56,17.60
2014,04,14,15,57,17.50
2014,04,14,15,58,17.40
2014,04,14,15,59,17.30
2014,04,14,16,00,17.30
2014,04,14,16,01,17.20
2014,04,14,16,02,17.10
2014,04,14,16,03,17.00
2014,04,14,16,04,17.00
2014,04,14,16,05,16.90
2014,04,14,16,06,16.80
2014,04,14,16,07,16.70
2014,04,14,16,08,16.60
2014,04,14,16,09,16.50
2014,04,14,16,10,16.40
2014,04,14,16,11,16.40
2014,04,14,16,12,16.30
2014,04,14,16,13,16.10
2014,04,14,16,14,16.00
2014,04,14,16,15,15.90
2014,04,14,16,16,15.80
2014,04,14,16,17,15.70
2014,04,14,16,18,15.70
2014,04,14,16,19,15.60
2014,04,14,16,20,15.60
2014,04,14,16,21,15.60
2014,04,14,16,22,15.60
2014,04,14,16,23,15.50
2014,04,14,16,24,15.50
2014,04,14,16,25,15.50
2014,04,14,16,26,15.30
2014,04,14,16,27,15.30
2014,04,14,16,28,15.20
2014,04,14,16,29,15.10
2014,04,14,16,30,15.00
2014,04,14,16,31,15.00
2014,04,14,16,32,14.90
2014,04,14,16,33,14.80
2014,04,14,16,34,14.60
2014,04,14,16,35,14.50
2014,04,14,16,36,14.50
2014,04,14,16,37,14.40
2014,04,14,16,38,14.40
2014,04,14,16,39,14.30
2014,04,14,16,40,14.30
2014,04,14,16,41,14.20
2014,04,14,16,42,14.20
2014,04,14,16,43,14.10
2014,04,14,16,44,14.00
2014,04,14,16,45,13.90
2014,04,14,16,46,13.80
2014,04,14,16,47,13.70
2014,04,14,16,48,13.70
2014,04,14,16,49,13.70
2014,04,14,16,50,13.70
2014,04,14,16,51,13.60
2014,04,14,16,52,13.60
2014,04,14,16,53,13.70
2014,04,14,16,54,13.70
2014,04,14,16,55,13.70
2014,04,14,16,56,13.80
2014,04,14,16,57,13.80
2014,04,14,16,58,13.90
2014,04,14,16,59,13.90
2014,04,14,17,00,13.90
2014,04,14,17,01,13.90
2014,04,14,17,02,13.90
2014,04,14,17,03,13.90
2014,04,14,17,04,13.90
2014,04,14,17,05,14.00
2014,04,14,17,06,14.00
2014,04,14,17,07,14.00
2014,04,14,17,08,14.10
2014,04,14,17,09,14.10
2014,04,14,17,10,14.10
2014,04,14,17,11,14.10
2014,04,14,17,12,14.10
2014,04,14,17,13,14.10
2014,04,14,17,14,14.10
2014,04,14,17,15,14.10
2014,04,14,17,16,14.10
2014,04,14,17,17,14.10
2014,04,14,17,18,14.10
2014,04,14,17,19,14.10
2014,04,14,17,20,14.10
2014,04,14,17,21,14.10
2014,04,14,17,22,14.10
2014,04,14,17,23,14.10
2014,04,14,17,24,14.10
2014,04,14,17,25,14.10
2014,04,14,17,26,14.10
2014,04,14,17,27,14.10
2014,04,14,17,28,14.10
2014,04,14,17,29,14.20
2014,04,14,17,30,14.20
2014,04,14,17,31,14.20
2014,04,14,17,32,14.20
2014,04,14,17,33,14.20
2014,04,14,17,34,14.20
2014,04,14,17,35,14.20
2014,04,14,17,36,14.10
2014,04,14,17,37,14.10
2014,04,14,17,38,14.10
2014,04,14,17,39,14.20
2014,04,14,17,40,14.20
2014,04,14,17,41,14.20
2014,04,14,17,42,14.20
2014,04,14,17,43,14.20